| time (UTC) | temp C | wind direction | speed KPH | gust KPH | rain 1hr cm | rain 24hr cm | rain mn cm | humidity % | barometer mb |
| 20260831180842 | 38 | 337 | 1.6 | 4.8 | 0.00 | 0.00 | 0.00 | 21 | 1015.3 |
| 20260831180337 | 37 | 110 | 1.6 | 3.2 | 0.00 | 0.00 | 0.00 | 21 | 1015.3 |
| 20260831175835 | 37 | 68 | 4.8 | 6.4 | 0.00 | 0.00 | 0.00 | 20 | 1015.3 |
| 20260831175332 | 36 | 328 | 3.2 | 6.4 | 0.00 | 0.00 | 0.00 | 21 | 1015.4 |
| 20260831174828 | 37 | 58 | 3.2 | 4.8 | 0.00 | 0.00 | 0.00 | 20 | 1015.4 |
| 20260831174323 | 37 | 349 | 0.0 | 4.8 | 0.00 | 0.00 | 0.00 | 20 | 1015.5 |
| 20260831173822 | 37 | 84 | 6.4 | 6.4 | 0.00 | 0.00 | 0.00 | 19 | 1015.6 |
| 20260831173316 | 36 | 112 | 3.2 | 6.4 | 0.00 | 0.00 | 0.00 | 19 | 1015.4 |
| 20260831172812 | 36 | 98 | 8.0 | 8.0 | 0.00 | 0.00 | 0.00 | 18 | 1015.5 |
| 20260831172307 | 37 | 58 | 1.6 | 4.8 | 0.00 | 0.00 | 0.00 | 18 | 1015.5 |
| 20260831171802 | 35 | 40 | 3.2 | 6.4 | 0.00 | 0.00 | 0.00 | 19 | 1015.4 |
| 20260831171259 | 36 | 63 | 4.8 | 6.4 | 0.00 | 0.00 | 0.00 | 19 | 1015.6 |
| 20260831170755 | 36 | 40 | 3.2 | 4.8 | 0.00 | 0.00 | 0.00 | 19 | 1015.6 |
| 20260831170251 | 36 | 87 | 6.4 | 6.4 | 0.00 | 0.00 | 0.00 | 18 | 1015.5 |
| 20260831165748 | 36 | 226 | 1.6 | 3.2 | 0.00 | 0.00 | 0.00 | 18 | 1015.4 |
| 20260831165244 | 36 | 53 | 4.8 | 4.8 | 0.00 | 0.00 | 0.00 | 17 | 1015.3 |
| 20260831164739 | 35 | 290 | 0.0 | 8.0 | 0.00 | 0.00 | 0.00 | 18 | 1015.6 |
| 20260831164235 | 35 | 280 | 4.8 | 8.0 | 0.00 | 0.00 | 0.00 | 18 | 1015.5 |
| 20260831163730 | 36 | 195 | 4.8 | 4.8 | 0.00 | 0.00 | 0.00 | 17 | 1015.4 |
| 20260831163226 | 36 | 253 | 0.0 | 1.6 | 0.00 | 0.00 | 0.00 | 16 | 1015.3 |
| 20260831162724 | 35 | 65 | 1.6 | 6.4 | 0.00 | 0.00 | 0.00 | 17 | 1015.4 |
| 20260831162224 | 35 | 35 | 0.0 | 3.2 | 0.00 | 0.00 | 0.00 | 17 | 1015.4 |
| 20260831161719 | 35 | 94 | 3.2 | 6.4 | 0.00 | 0.00 | 0.00 | 16 | 1015.3 |
| 20260831161215 | 35 | 91 | 3.2 | 6.4 | 0.00 | 0.00 | 0.00 | 17 | 1015.5 |
| 20260831160714 | 35 | 230 | 0.0 | 3.2 | 0.00 | 0.00 | 0.00 | 17 | 1015.5 |
| 20260831160204 | 35 | 125 | 3.2 | 3.2 | 0.00 | 0.00 | 0.00 | 17 | 1015.4 |
| 20260831155703 | 33 | 300 | 0.0 | 4.8 | 0.00 | 0.00 | 0.00 | 17 | 1015.4 |
| 20260831155159 | 35 | 102 | 0.0 | 4.8 | 0.00 | 0.00 | 0.00 | 16 | 1015.5 |
| 20260831154655 | 35 | 157 | 3.2 | 3.2 | 0.00 | 0.00 | 0.00 | 16 | 1015.3 |
| 20260831154150 | 34 | 281 | 0.0 | 3.2 | 0.00 | 0.00 | 0.00 | 16 | 1015.3 |
| 20260831153649 | 33 | 199 | 0.0 | 3.2 | 0.00 | 0.00 | 0.00 | 17 | 1015.4 |
| 20260831153146 | 34 | 150 | 0.0 | 3.2 | 0.00 | 0.00 | 0.00 | 16 | 1015.4 |
| 20260831152641 | 34 | 68 | 0.0 | 3.2 | 0.00 | 0.00 | 0.00 | 17 | 1015.2 |
| 20260831152137 | 33 | 297 | 0.0 | 4.8 | 0.00 | 0.00 | 0.00 | 17 | 1015.3 |
| 20260831151637 | 33 | 89 | 1.6 | 3.2 | 0.00 | 0.00 | 0.00 | 17 | 1015.2 |
| 20260831151131 | 33 | 14 | 0.0 | 3.2 | 0.00 | 0.00 | 0.00 | 17 | 1015.3 |
| 20260831150626 | 32 | 68 | 1.6 | 3.2 | 0.00 | 0.00 | 0.00 | 18 | 1015.5 |
| 20260831150121 | 32 | 221 | 0.0 | 3.2 | 0.00 | 0.00 | 0.00 | 18 | 1015.2 |
| 20260831145615 | 31 | 116 | 1.6 | 3.2 | 0.00 | 0.00 | 0.00 | 19 | 1015.3 |
| 20260831145112 | 31 | 185 | 0.0 | 3.2 | 0.00 | 0.00 | 0.00 | 19 | 1015.4 |
| 20260831144608 | 31 | 216 | 0.0 | 3.2 | 0.00 | 0.00 | 0.00 | 20 | 1015.2 |
| 20260831144103 | 30 | 256 | 1.6 | 3.2 | 0.00 | 0.00 | 0.00 | 20 | 1015.1 |
| 20260831143602 | 30 | 256 | 3.2 | 3.2 | 0.00 | 0.00 | 0.00 | 21 | 1015.3 |
| 20260831143058 | 29 | 358 | 1.6 | 1.6 | 0.00 | 0.00 | 0.00 | 22 | 1015.0 |
| 20260831142554 | 28 | 89 | 0.0 | 3.2 | 0.00 | 0.00 | 0.00 | 22 | 1015.0 |
| 20260831142050 | 27 | 269 | 0.0 | 3.2 | 0.00 | 0.00 | 0.00 | 23 | 1014.7 |
| 20260831141548 | 27 | 92 | 1.6 | 3.2 | 0.00 | 0.00 | 0.00 | 24 | 1014.9 |
| 20260831141044 | 26 | 323 | 3.2 | 3.2 | 0.00 | 0.00 | 0.00 | 24 | 1014.7 |
| 20260831140543 | 26 | 282 | 1.6 | 3.2 | 0.00 | 0.00 | 0.00 | 24 | 1014.8 |
| 20260831140037 | 26 | 298 | 0.0 | 1.6 | 0.00 | 0.00 | 0.00 | 24 | 1014.7 |
| 20260831135535 | 25 | 259 | 0.0 | 3.2 | 0.00 | 0.00 | 0.00 | 24 | 1014.6 |
| 20260831135030 | 26 | 230 | 1.6 | 3.2 | 0.00 | 0.00 | 0.00 | 24 | 1014.4 |
| 20260831134526 | 26 | 301 | 0.0 | 1.6 | 0.00 | 0.00 | 0.00 | 25 | 1014.4 |
| 20260831134021 | 25 | 278 | 0.0 | 1.6 | 0.00 | 0.00 | 0.00 | 24 | 1014.1 |
| 20260831133516 | 25 | 245 | 0.0 | 3.2 | 0.00 | 0.00 | 0.00 | 25 | 1014.3 |
| 20260831133011 | 25 | 319 | 1.6 | 3.2 | 0.00 | 0.00 | 0.00 | 24 | 1014.3 |
| 20260831132507 | 25 | 102 | 0.0 | 3.2 | 0.00 | 0.00 | 0.00 | 25 | 1014.2 |
| 20260831132005 | 25 | 151 | 1.6 | 4.8 | 0.00 | 0.00 | 0.00 | 24 | 1014.2 |
| 20260831131500 | 25 | 179 | 3.2 | 4.8 | 0.00 | 0.00 | 0.00 | 24 | 1014.1 |
| 20260831130956 | 25 | 209 | 3.2 | 4.8 | 0.00 | 0.00 | 0.00 | 25 | 1014.2 |
| 20260831130451 | 25 | 96 | 0.0 | 3.2 | 0.00 | 0.00 | 0.00 | 25 | 1014.1 |
| 20260831125950 | 25 | 253 | 0.0 | 3.2 | 0.00 | 0.00 | 0.00 | 24 | 1014.2 |
| 20260831125445 | 25 | 170 | 1.6 | 3.2 | 0.00 | 0.00 | 0.00 | 25 | 1014.1 |
| 20260831124941 | 25 | 200 | 1.6 | 3.2 | 0.00 | 0.00 | 0.00 | 25 | 1014.1 |
| 20260831124437 | 25 | 205 | 1.6 | 3.2 | 0.00 | 0.00 | 0.00 | 25 | 1014.0 |
| 20260831123933 | 25 | 168 | 0.0 | 3.2 | 0.00 | 0.00 | 0.00 | 25 | 1013.9 |
| 20260831123431 | 25 | 251 | 3.2 | 4.8 | 0.00 | 0.00 | 0.00 | 25 | 1014.0 |
| 20260831122926 | 26 | 237 | 0.0 | 3.2 | 0.00 | 0.00 | 0.00 | 24 | 1013.8 |
| 20260831122421 | 26 | 172 | 1.6 | 1.6 | 0.00 | 0.00 | 0.00 | 24 | 1013.9 |
| 20260831121916 | 26 | 170 | 1.6 | 3.2 | 0.00 | 0.00 | 0.00 | 25 | 1013.7 |
| 20260831121412 | 26 | 233 | 0.0 | 3.2 | 0.00 | 0.00 | 0.00 | 25 | 1013.7 |
| 20260831120908 | 26 | 181 | 3.2 | 6.4 | 0.00 | 0.00 | 0.00 | 24 | 1014.0 |
| 20260831120402 | 25 | 211 | 1.6 | 4.8 | 0.00 | 0.00 | 0.00 | 25 | 1013.6 |
| 20260831115856 | 25 | 165 | 0.0 | 3.2 | 0.00 | 0.00 | 0.00 | 25 | 1013.7 |
| 20260831115353 | 26 | 195 | 3.2 | 4.8 | 0.00 | 0.00 | 0.00 | 25 | 1013.7 |
| 20260831114852 | 26 | 257 | 1.6 | 3.2 | 0.00 | 0.00 | 0.00 | 25 | 1013.8 |
| 20260831114351 | 27 | 211 | 6.4 | 6.4 | 0.00 | 0.00 | 0.00 | 24 | 1013.9 |
| 20260831113848 | 27 | 119 | 0.0 | 3.2 | 0.00 | 0.00 | 0.00 | 24 | 1013.7 |
| 20260831113347 | 27 | 149 | 3.2 | 3.2 | 0.00 | 0.00 | 0.00 | 24 | 1013.6 |
| 20260831112841 | 26 | 228 | 1.6 | 3.2 | 0.00 | 0.00 | 0.00 | 25 | 1013.7 |
| 20260831112336 | 26 | 217 | 0.0 | 3.2 | 0.00 | 0.00 | 0.00 | 25 | 1013.7 |
| 20260831111831 | 26 | 49 | 0.0 | 3.2 | 0.00 | 0.00 | 0.00 | 25 | 1013.7 |
| 20260831111323 | 27 | 249 | 0.0 | 1.6 | 0.00 | 0.00 | 0.00 | 25 | 1013.7 |
| 20260831110818 | 27 | 135 | 1.6 | 3.2 | 0.00 | 0.00 | 0.00 | 24 | 1013.7 |
| 20260831110318 | 27 | 130 | 0.0 | 3.2 | 0.00 | 0.00 | 0.00 | 24 | 1013.7 |
| 20260831105811 | 27 | 309 | 0.0 | 1.6 | 0.00 | 0.00 | 0.00 | 24 | 1013.7 |
| 20260831105307 | 28 | 122 | 0.0 | 3.2 | 0.00 | 0.00 | 0.00 | 23 | 1013.7 |
| 20260831104807 | 27 | 179 | 1.6 | 3.2 | 0.00 | 0.00 | 0.00 | 24 | 1013.6 |
| 20260831104303 | 28 | 78 | 0.0 | 3.2 | 0.00 | 0.00 | 0.00 | 24 | 1013.5 |
| 20260831103758 | 27 | 102 | 3.2 | 4.8 | 0.00 | 0.00 | 0.00 | 24 | 1013.5 |
| 20260831103254 | 27 | 195 | 0.0 | 1.6 | 0.00 | 0.00 | 0.00 | 25 | 1013.7 |
| 20260831102753 | 28 | 70 | 1.6 | 3.2 | 0.00 | 0.00 | 0.00 | 24 | 1013.4 |
| 20260831102248 | 28 | 207 | 0.0 | 3.2 | 0.00 | 0.00 | 0.00 | 24 | 1013.2 |
| 20260831101744 | 28 | 88 | 1.6 | 4.8 | 0.00 | 0.00 | 0.00 | 24 | 1013.5 |
| 20260831101239 | 29 | 191 | 0.0 | 3.2 | 0.00 | 0.00 | 0.00 | 22 | 1013.3 |
| 20260831100735 | 28 | 169 | 1.6 | 4.8 | 0.00 | 0.00 | 0.00 | 21 | 1013.4 |
| 20260831100231 | 28 | 50 | 0.0 | 3.2 | 0.00 | 0.00 | 0.00 | 23 | 1013.4 |
| 20260831095729 | 28 | 205 | 0.0 | 3.2 | 0.00 | 0.00 | 0.00 | 24 | 1013.6 |
| 20260831095225 | 28 | 88 | 0.0 | 1.6 | 0.00 | 0.00 | 0.00 | 23 | 1013.3 |
| 20260831094725 | 28 | 168 | 3.2 | 4.8 | 0.00 | 0.00 | 0.00 | 24 | 1013.5 |
| 20260831094221 | 28 | 210 | 1.6 | 3.2 | 0.00 | 0.00 | 0.00 | 24 | 1013.5 |
| 20260831093717 | 30 | 342 | 1.6 | 6.4 | 0.00 | 0.00 | 0.00 | 21 | 1013.5 |
| 20260831093212 | 30 | 177 | 1.6 | 3.2 | 0.00 | 0.00 | 0.00 | 22 | 1013.5 |
| 20260831092708 | 30 | 106 | 0.0 | 3.2 | 0.00 | 0.00 | 0.00 | 20 | 1013.3 |
| 20260831092203 | 31 | 99 | 1.6 | 3.2 | 0.00 | 0.00 | 0.00 | 21 | 1013.2 |
| 20260831091703 | 30 | 185 | 0.0 | 1.6 | 0.00 | 0.00 | 0.00 | 23 | 1013.3 |
| 20260831091159 | 28 | 355 | 3.2 | 3.2 | 0.00 | 0.00 | 0.00 | 24 | 1013.4 |
| 20260831090659 | 29 | 289 | 1.6 | 3.2 | 0.00 | 0.00 | 0.00 | 23 | 1013.3 |
| 20260831090155 | 30 | 76 | 3.2 | 3.2 | 0.00 | 0.00 | 0.00 | 22 | 1013.3 |
| 20260831085651 | 30 | 64 | 3.2 | 3.2 | 0.00 | 0.00 | 0.00 | 22 | 1013.5 |
| 20260831085147 | 30 | 147 | 0.0 | 3.2 | 0.00 | 0.00 | 0.00 | 21 | 1013.6 |
| 20260831084642 | 30 | 266 | 0.0 | 3.2 | 0.00 | 0.00 | 0.00 | 23 | 1013.6 |
| 20260831084138 | 30 | 154 | 3.2 | 3.2 | 0.00 | 0.00 | 0.00 | 22 | 1013.5 |
| 20260831083634 | 29 | 63 | 0.0 | 3.2 | 0.00 | 0.00 | 0.00 | 24 | 1013.4 |
| 20260831083129 | 29 | 80 | 3.2 | 4.8 | 0.00 | 0.00 | 0.00 | 24 | 1013.4 |
| 20260831082627 | 29 | 299 | 0.0 | 4.8 | 0.00 | 0.00 | 0.00 | 24 | 1013.6 |
| 20260831082123 | 28 | 79 | 1.6 | 3.2 | 0.00 | 0.00 | 0.00 | 24 | 1013.5 |
| 20260831081618 | 29 | 63 | 0.0 | 3.2 | 0.00 | 0.00 | 0.00 | 24 | 1013.8 |
| 20260831081114 | 28 | 68 | 0.0 | 1.6 | 0.00 | 0.00 | 0.00 | 25 | 1013.5 |
| 20260831080609 | 28 | 269 | 0.0 | 1.6 | 0.00 | 0.00 | 0.00 | 26 | 1013.7 |
| 20260831080104 | 29 | 48 | 1.6 | 3.2 | 0.00 | 0.00 | 0.00 | 26 | 1013.6 |
| 20260831075600 | 30 | 63 | 3.2 | 3.2 | 0.00 | 0.00 | 0.00 | 25 | 1013.7 |
| 20260831075055 | 30 | 55 | 3.2 | 4.8 | 0.00 | 0.00 | 0.00 | 24 | 1013.8 |
| 20260831074554 | 30 | 100 | 0.0 | 1.6 | 0.00 | 0.00 | 0.00 | 24 | 1013.6 |
| 20260831074049 | 30 | 222 | 0.0 | 3.2 | 0.00 | 0.00 | 0.00 | 24 | 1013.7 |
| 20260831073544 | 30 | 255 | 1.6 | 4.8 | 0.00 | 0.00 | 0.00 | 23 | 1013.5 |
| 20260831073043 | 30 | 170 | 3.2 | 4.8 | 0.00 | 0.00 | 0.00 | 23 | 1013.6 |
| 20260831072539 | 30 | 237 | 1.6 | 1.6 | 0.00 | 0.00 | 0.00 | 23 | 1013.6 |
| 20260831072035 | 30 | 89 | 0.0 | 1.6 | 0.00 | 0.00 | 0.00 | 24 | 1013.7 |
| 20260831071534 | 30 | 223 | 0.0 | 1.6 | 0.00 | 0.00 | 0.00 | 23 | 1013.4 |
| 20260831071029 | 31 | 239 | 3.2 | 6.4 | 0.00 | 0.00 | 0.00 | 23 | 1013.5 |
| 20260831070528 | 31 | 251 | 1.6 | 4.8 | 0.00 | 0.00 | 0.00 | 23 | 1013.4 |
| 20260831070023 | 31 | 247 | 0.0 | 3.2 | 0.00 | 0.00 | 0.00 | 23 | 1013.6 |
| 20260831065521 | 31 | 59 | 1.6 | 3.2 | 0.00 | 0.00 | 0.00 | 23 | 1013.3 |
| 20260831065016 | 31 | 191 | 0.0 | 3.2 | 0.00 | 0.00 | 0.00 | 23 | 1013.4 |
| 20260831064511 | 32 | 284 | 0.0 | 3.2 | 0.00 | 0.00 | 0.00 | 23 | 1013.4 |
| 20260831064006 | 32 | 92 | 3.2 | 3.2 | 0.00 | 0.00 | 0.00 | 22 | 1013.3 |
| 20260831063501 | 33 | 332 | 3.2 | 4.8 | 0.00 | 0.00 | 0.00 | 21 | 1013.4 |
| 20260831062955 | 33 | 285 | 4.8 | 16.1 | 0.00 | 0.00 | 0.00 | 20 | 1013.4 |
| 20260831062451 | 33 | 260 | 11.3 | 14.5 | 0.00 | 0.00 | 0.00 | 20 | 1013.3 |
| 20260831061950 | 33 | 253 | 8.0 | 16.1 | 0.00 | 0.00 | 0.00 | 20 | 1013.2 |
| 20260831061448 | 33 | 268 | 8.0 | 16.1 | 0.00 | 0.00 | 0.00 | 20 | 1013.2 |
| 20260831060945 | 33 | 238 | 11.3 | 20.9 | 0.00 | 0.00 | 0.00 | 20 | 1013.2 |
| 20260831060439 | 33 | 272 | 8.0 | 20.9 | 0.00 | 0.00 | 0.00 | 20 | 1013.1 |
| 20260831055938 | 33 | 287 | 9.7 | 24.1 | 0.00 | 0.00 | 0.00 | 20 | 1013.1 |
| 20260831055433 | 33 | 285 | 9.7 | 17.7 | 0.00 | 0.00 | 0.00 | 20 | 1013.1 |
| 20260831054929 | 33 | 287 | 17.7 | 30.6 | 0.00 | 0.00 | 0.00 | 20 | 1013.1 |
| 20260831054424 | 33 | 268 | 19.3 | 24.1 | 0.00 | 0.00 | 0.00 | 20 | 1013.4 |
| 20260831053923 | 33 | 293 | 11.3 | 17.7 | 0.00 | 0.00 | 0.00 | 20 | 1013.2 |
| 20260831053421 | 33 | 288 | 12.9 | 24.1 | 0.00 | 0.00 | 0.00 | 20 | 1013.3 |
| 20260831052916 | 33 | 300 | 14.5 | 27.4 | 0.00 | 0.00 | 0.00 | 20 | 1013.1 |
| 20260831052415 | 33 | 324 | 25.7 | 27.4 | 0.00 | 0.00 | 0.00 | 20 | 1013.2 |
| 20260831051914 | 33 | 312 | 19.3 | 24.1 | 0.00 | 0.00 | 0.00 | 20 | 1013.3 |
| 20260831051412 | 33 | 287 | 11.3 | 20.9 | 0.00 | 0.00 | 0.00 | 21 | 1013.2 |
| 20260831050908 | 33 | 253 | 9.7 | 19.3 | 0.00 | 0.00 | 0.00 | 21 | 1013.2 |
| 20260831050402 | 33 | 240 | 9.7 | 24.1 | 0.00 | 0.00 | 0.00 | 20 | 1013.2 |
| 20260831045901 | 33 | 301 | 6.4 | 25.7 | 0.00 | 0.00 | 0.00 | 21 | 1013.1 |
| 20260831045355 | 33 | 303 | 16.1 | 22.5 | 0.00 | 0.00 | 0.00 | 21 | 1013.0 |
| 20260831044850 | 33 | 277 | 22.5 | 27.4 | 0.00 | 0.00 | 0.00 | 21 | 1013.1 |
| 20260831044350 | 33 | 287 | 22.5 | 32.2 | 0.00 | 0.00 | 0.00 | 21 | 1012.9 |
| 20260831043847 | 33 | 303 | 9.7 | 30.6 | 0.00 | 0.00 | 0.00 | 21 | 1013.3 |
| 20260831043346 | 33 | 260 | 14.5 | 32.2 | 0.00 | 0.00 | 0.00 | 21 | 1012.9 |
| 20260831042841 | 33 | 288 | 9.7 | 24.1 | 0.00 | 0.00 | 0.00 | 22 | 1013.3 |
| 20260831042340 | 33 | 324 | 8.0 | 19.3 | 0.00 | 0.00 | 0.00 | 22 | 1013.0 |
| 20260831041836 | 34 | 295 | 22.5 | 30.6 | 0.00 | 0.00 | 0.00 | 22 | 1013.0 |
| 20260831041335 | 33 | 345 | 19.3 | 29.0 | 0.00 | 0.00 | 0.00 | 23 | 1013.0 |
| 20260831040830 | 34 | 23 | 4.8 | 30.6 | 0.00 | 0.00 | 0.00 | 22 | 1013.0 |
| 20260831040329 | 33 | 324 | 17.7 | 25.7 | 0.00 | 0.00 | 0.00 | 23 | 1012.8 |
| 20260831035828 | 33 | 306 | 25.7 | 29.0 | 0.00 | 0.00 | 0.00 | 24 | 1012.6 |
| 20260831035327 | 34 | 299 | 20.9 | 25.7 | 0.00 | 0.00 | 0.00 | 23 | 1012.7 |
| 20260831034822 | 34 | 281 | 9.7 | 14.5 | 0.00 | 0.00 | 0.00 | 23 | 1012.5 |
| 20260831034317 | 34 | 289 | 8.0 | 24.1 | 0.00 | 0.00 | 0.00 | 22 | 1012.6 |
| 20260831033812 | 34 | 313 | 16.1 | 24.1 | 0.00 | 0.00 | 0.00 | 23 | 1012.4 |
| 20260831033307 | 35 | 287 | 8.0 | 24.1 | 0.00 | 0.00 | 0.00 | 22 | 1012.4 |
| 20260831032803 | 35 | 280 | 11.3 | 17.7 | 0.00 | 0.00 | 0.00 | 22 | 1012.3 |
| 20260831032257 | 34 | 301 | 11.3 | 29.0 | 0.00 | 0.00 | 0.00 | 22 | 1012.1 |
| 20260831031752 | 34 | 280 | 6.4 | 16.1 | 0.00 | 0.00 | 0.00 | 23 | 1012.0 |
| 20260831031251 | 34 | 308 | 11.3 | 20.9 | 0.00 | 0.00 | 0.00 | 23 | 1011.7 |
| 20260831030746 | 34 | 326 | 14.5 | 19.3 | 0.00 | 0.00 | 0.00 | 24 | 1012.0 |
| 20260831030244 | 34 | 315 | 9.7 | 17.7 | 0.00 | 0.00 | 0.00 | 24 | 1011.7 |
| 20260831025744 | 34 | 252 | 17.7 | 35.4 | 0.00 | 0.00 | 0.00 | 23 | 1011.7 |
| 20260831025238 | 34 | 296 | 9.7 | 22.5 | 0.00 | 0.00 | 0.00 | 24 | 1011.8 |
| 20260831024735 | 35 | 274 | 16.1 | 27.4 | 0.00 | 0.00 | 0.00 | 23 | 1011.7 |
| 20260831024233 | 35 | 306 | 9.7 | 14.5 | 0.00 | 0.00 | 0.00 | 25 | 1012.0 |
| 20260831023732 | 35 | 301 | 20.9 | 27.4 | 0.00 | 0.00 | 0.00 | 26 | 1012.0 |
| 20260831023231 | 35 | 293 | 17.7 | 35.4 | 0.00 | 0.00 | 0.00 | 25 | 1011.5 |
| 20260831022726 | 35 | 289 | 17.7 | 32.2 | 0.00 | 0.00 | 0.00 | 25 | 1011.5 |
| 20260831022221 | 35 | 292 | 14.5 | 32.2 | 0.00 | 0.00 | 0.00 | 26 | 1011.7 |
| 20260831021720 | 35 | 295 | 16.1 | 30.6 | 0.00 | 0.00 | 0.00 | 27 | 1011.7 |
| 20260831021215 | 35 | 273 | 14.5 | 35.4 | 0.00 | 0.00 | 0.00 | 27 | 1011.5 |
| 20260831020712 | 35 | 261 | 17.7 | 27.4 | 0.00 | 0.00 | 0.00 | 26 | 1011.3 |
| 20260831020211 | 35 | 273 | 14.5 | 35.4 | 0.00 | 0.00 | 0.00 | 26 | 1011.2 |
| 20260831015706 | 35 | 243 | 30.6 | 38.6 | 0.00 | 0.00 | 0.00 | 25 | 1011.0 |
| 20260831015201 | 35 | 265 | 20.9 | 37.0 | 0.00 | 0.00 | 0.00 | 25 | 1011.1 |
| 20260831014656 | 35 | 271 | 17.7 | 37.0 | 0.00 | 0.00 | 0.00 | 24 | 1010.9 |
| 20260831014151 | 36 | 310 | 22.5 | 30.6 | 0.00 | 0.00 | 0.00 | 23 | 1011.0 |
| 20260831013647 | 36 | 281 | 12.9 | 30.6 | 0.00 | 0.00 | 0.00 | 23 | 1010.5 |
| 20260831013147 | 36 | 292 | 12.9 | 32.2 | 0.00 | 0.00 | 0.00 | 23 | 1010.9 |
| 20260831012642 | 36 | 264 | 16.1 | 20.9 | 0.00 | 0.00 | 0.00 | 23 | 1010.7 |
| 20260831012137 | 36 | 274 | 17.7 | 30.6 | 0.00 | 0.00 | 0.00 | 23 | 1010.8 |
| 20260831011636 | 36 | 293 | 9.7 | 27.4 | 0.00 | 0.00 | 0.00 | 23 | 1010.8 |
| 20260831011132 | 37 | 326 | 12.9 | 16.1 | 0.00 | 0.00 | 0.00 | 23 | 1011.0 |
| 20260831010627 | 38 | 261 | 14.5 | 22.5 | 0.00 | 0.00 | 0.00 | 23 | 1010.6 |
| 20260831010122 | 38 | 287 | 9.7 | 29.0 | 0.00 | 0.00 | 0.00 | 23 | 1010.8 |
| 20260831005617 | 38 | 250 | 12.9 | 19.3 | 0.00 | 0.00 | 0.00 | 22 | 1010.7 |
| 20260831005112 | 38 | 258 | 11.3 | 17.7 | 0.00 | 0.00 | 0.00 | 22 | 1010.8 |
| 20260831004608 | 39 | 248 | 9.7 | 24.1 | 0.00 | 0.00 | 0.00 | 22 | 1010.6 |
| 20260831004103 | 39 | 238 | 11.3 | 14.5 | 0.00 | 0.00 | 0.00 | 22 | 1010.7 |
| 20260831003600 | 38 | 262 | 12.9 | 30.6 | 0.00 | 0.00 | 0.00 | 22 | 1010.7 |
| 20260831003055 | 39 | 243 | 24.1 | 37.0 | 0.00 | 0.00 | 0.00 | 22 | 1010.7 |
| 20260831002554 | 39 | 327 | 9.7 | 24.1 | 0.00 | 0.00 | 0.00 | 22 | 1010.7 |
| 20260831002049 | 39 | 290 | 12.9 | 29.0 | 0.00 | 0.00 | 0.00 | 21 | 1010.8 |
| 20260831001544 | 40 | 242 | 27.4 | 37.0 | 0.00 | 0.00 | 0.00 | 21 | 1010.8 |
| 20260831001041 | 40 | 275 | 14.5 | 33.8 | 0.00 | 0.00 | 0.00 | 21 | 1010.7 |
| 20260831000537 | 40 | 248 | 14.5 | 22.5 | 0.00 | 0.00 | 0.00 | 21 | 1010.6 |
| 20260831000036 | 40 | 260 | 11.3 | 22.5 | 0.00 | 0.00 | 0.00 | 21 | 1010.8 |
| 20260830235535 | 40 | 255 | 30.6 | 33.8 | 0.00 | 0.00 | 0.00 | 21 | 1010.8 |
| 20260830235030 | 40 | 249 | 22.5 | 35.4 | 0.00 | 0.00 | 0.00 | 21 | 1010.7 |
| 20260830234525 | 41 | 272 | 14.5 | 20.9 | 0.00 | 0.00 | 0.00 | 20 | 1010.8 |
| 20260830234020 | 40 | 238 | 14.5 | 30.6 | 0.00 | 0.00 | 0.00 | 21 | 1010.7 |
| 20260830233515 | 40 | 260 | 12.9 | 27.4 | 0.00 | 0.00 | 0.00 | 21 | 1010.9 |
| 20260830233012 | 40 | 253 | 25.7 | 37.0 | 0.00 | 0.00 | 0.00 | 21 | 1010.8 |
| 20260830232508 | 40 | 264 | 11.3 | 29.0 | 0.00 | 0.00 | 0.00 | 21 | 1010.9 |
| 20260830232004 | 40 | 247 | 19.3 | 30.6 | 0.00 | 0.00 | 0.00 | 20 | 1010.8 |
| 20260830231459 | 40 | 246 | 24.1 | 27.4 | 0.00 | 0.00 | 0.00 | 20 | 1011.0 |
| 20260830230958 | 41 | 250 | 8.0 | 27.4 | 0.00 | 0.00 | 0.00 | 20 | 1010.9 |
| 20260830230454 | 41 | 261 | 14.5 | 24.1 | 0.00 | 0.00 | 0.00 | 21 | 1011.0 |
| 20260830225952 | 41 | 254 | 16.1 | 25.7 | 0.00 | 0.00 | 0.00 | 20 | 1011.0 |
| 20260830225449 | 41 | 287 | 9.7 | 25.7 | 0.00 | 0.00 | 0.00 | 20 | 1011.1 |
| 20260830224948 | 41 | 238 | 22.5 | 25.7 | 0.00 | 0.00 | 0.00 | 20 | 1011.0 |
| 20260830224447 | 41 | 245 | 12.9 | 35.4 | 0.00 | 0.00 | 0.00 | 20 | 1011.1 |
| 20260830223944 | 41 | 232 | 16.1 | 24.1 | 0.00 | 0.00 | 0.00 | 19 | 1011.2 |
| 20260830223440 | 41 | 233 | 27.4 | 32.2 | 0.00 | 0.00 | 0.00 | 20 | 1011.2 |
| 20260830222939 | 41 | 227 | 17.7 | 33.8 | 0.00 | 0.00 | 0.00 | 20 | 1011.1 |
| 20260830222435 | 42 | 228 | 9.7 | 22.5 | 0.00 | 0.00 | 0.00 | 20 | 1011.2 |
| 20260830221930 | 42 | 245 | 14.5 | 30.6 | 0.00 | 0.00 | 0.00 | 20 | 1011.4 |
| 20260830221426 | 42 | 249 | 20.9 | 24.1 | 0.00 | 0.00 | 0.00 | 19 | 1011.5 |
| 20260830220921 | 41 | 250 | 22.5 | 37.0 | 0.00 | 0.00 | 0.00 | 20 | 1011.2 |
| 20260830220416 | 41 | 254 | 19.3 | 27.4 | 0.00 | 0.00 | 0.00 | 20 | 1011.5 |
| 20260830215913 | 41 | 237 | 22.5 | 27.4 | 0.00 | 0.00 | 0.00 | 21 | 1011.7 |
| 20260830215408 | 41 | 267 | 12.9 | 29.0 | 0.00 | 0.00 | 0.00 | 20 | 1011.7 |
| 20260830214903 | 42 | 246 | 30.6 | 33.8 | 0.00 | 0.00 | 0.00 | 20 | 1011.7 |
| 20260830214358 | 42 | 213 | 9.7 | 24.1 | 0.00 | 0.00 | 0.00 | 19 | 1011.6 |
| 20260830213852 | 42 | 232 | 6.4 | 20.9 | 0.00 | 0.00 | 0.00 | 19 | 1011.8 |
| 20260830213343 | 42 | 227 | 14.5 | 19.3 | 0.00 | 0.00 | 0.00 | 18 | 1012.0 |
| 20260830212838 | 42 | 241 | 9.7 | 20.9 | 0.00 | 0.00 | 0.00 | 18 | 1011.7 |
| 20260830212334 | 42 | 226 | 11.3 | 25.7 | 0.00 | 0.00 | 0.00 | 18 | 1012.1 |
| 20260830211832 | 42 | 261 | 9.7 | 22.5 | 0.00 | 0.00 | 0.00 | 19 | 1012.2 |
| 20260830211327 | 41 | 253 | 11.3 | 22.5 | 0.00 | 0.00 | 0.00 | 19 | 1012.3 |
| 20260830210823 | 42 | 290 | 6.4 | 9.7 | 0.00 | 0.00 | 0.00 | 19 | 1012.2 |
| 20260830210322 | 42 | 107 | 3.2 | 8.0 | 0.00 | 0.00 | 0.00 | 19 | 1012.3 |
| 20260830205820 | 41 | 94 | 6.4 | 11.3 | 0.00 | 0.00 | 0.00 | 19 | 1012.4 |
| 20260830205314 | 41 | 103 | 9.7 | 16.1 | 0.00 | 0.00 | 0.00 | 19 | 1012.6 |
| 20260830204809 | 41 | 190 | 1.6 | 14.5 | 0.00 | 0.00 | 0.00 | 19 | 1012.4 |
| 20260830204308 | 42 | 78 | 6.4 | 11.3 | 0.00 | 0.00 | 0.00 | 19 | 1012.6 |
| 20260830203804 | 42 | 98 | 8.0 | 12.9 | 0.00 | 0.00 | 0.00 | 19 | 1012.7 |
| 20260830203300 | 42 | 39 | 3.2 | 6.4 | 0.00 | 0.00 | 0.00 | 18 | 1012.8 |
| 20260830202759 | 42 | 30 | 4.8 | 6.4 | 0.00 | 0.00 | 0.00 | 19 | 1012.6 |
| 20260830202254 | 42 | 81 | 1.6 | 8.0 | 0.00 | 0.00 | 0.00 | 19 | 1012.9 |
| 20260830201749 | 41 | 86 | 3.2 | 9.7 | 0.00 | 0.00 | 0.00 | 19 | 1012.8 |
| 20260830201243 | 41 | 5 | 3.2 | 11.3 | 0.00 | 0.00 | 0.00 | 19 | 1013.1 |
| 20260830200738 | 41 | 112 | 3.2 | 11.3 | 0.00 | 0.00 | 0.00 | 19 | 1012.9 |
| 20260830200238 | 41 | 70 | 6.4 | 12.9 | 0.00 | 0.00 | 0.00 | 19 | 1013.1 |
| 20260830195733 | 41 | 99 | 14.5 | 14.5 | 0.00 | 0.00 | 0.00 | 19 | 1013.1 |
| 20260830195231 | 41 | 93 | 12.9 | 19.3 | 0.00 | 0.00 | 0.00 | 18 | 1013.2 |
| 20260830194730 | 42 | 122 | 6.4 | 12.9 | 0.00 | 0.00 | 0.00 | 18 | 1013.0 |
| 20260830194225 | 41 | 63 | 4.8 | 6.4 | 0.00 | 0.00 | 0.00 | 19 | 1013.2 |
| 20260830193720 | 41 | 76 | 6.4 | 9.7 | 0.00 | 0.00 | 0.00 | 19 | 1013.2 |
| 20260830193214 | 40 | 298 | 1.6 | 9.7 | 0.00 | 0.00 | 0.00 | 19 | 1013.2 |
| 20260830192710 | 41 | 93 | 8.0 | 8.0 | 0.00 | 0.00 | 0.00 | 19 | 1013.5 |
| 20260830192205 | 41 | 100 | 8.0 | 14.5 | 0.00 | 0.00 | 0.00 | 18 | 1013.6 |
| 20260830191701 | 40 | 123 | 4.8 | 9.7 | 0.00 | 0.00 | 0.00 | 19 | 1013.4 |
| 20260830191155 | 40 | 131 | 6.4 | 16.1 | 0.00 | 0.00 | 0.00 | 19 | 1013.6 |
| 20260830190651 | 40 | 245 | 3.2 | 8.0 | 0.00 | 0.00 | 0.00 | 19 | 1013.7 |
| 20260830190146 | 41 | 128 | 6.4 | 11.3 | 0.00 | 0.00 | 0.00 | 19 | 1013.8 |
| 20260830185644 | 41 | 111 | 9.7 | 9.7 | 0.00 | 0.00 | 0.00 | 18 | 1013.9 |
| 20260830185140 | 41 | 359 | 3.2 | 4.8 | 0.00 | 0.00 | 0.00 | 19 | 1014.1 |
| 20260830184639 | 41 | 21 | 3.2 | 9.7 | 0.00 | 0.00 | 0.00 | 19 | 1014.1 |
| 20260830184133 | 41 | 98 | 3.2 | 8.0 | 0.00 | 0.00 | 0.00 | 19 | 1014.2 |
| 20260830183633 | 41 | 132 | 0.0 | 3.2 | 0.00 | 0.00 | 0.00 | 20 | 1014.2 |
| 20260830183130 | 41 | 355 | 3.2 | 6.4 | 0.00 | 0.00 | 0.00 | 19 | 1014.3 |
| 20260830182630 | 40 | 37 | 0.0 | 4.8 | 0.00 | 0.00 | 0.00 | 19 | 1014.3 |
| 20260830182126 | 40 | 301 | 4.8 | 9.7 | 0.00 | 0.00 | 0.00 | 20 | 1014.5 |
| 20260830181622 | 40 | 273 | 3.2 | 6.4 | 0.00 | 0.00 | 0.00 | 19 | 1014.3 |
| 20260830181121 | 40 | 211 | 3.2 | 8.0 | 0.00 | 0.00 | 0.00 | 20 | 1014.6 |